| time (UTC) | temp F | wind direction | speed MPH | gust MPH | rain 1hr in | rain 24hr in | rain mn in | humidity % | barometer mb |
| 20260505124800 | 64 | 207 | 2.0 | 6.0 | 0.00 | 0.00 | 0.00 | 64 | 986.1 |
| 20260505124301 | 63 | 219 | 2.0 | 7.0 | 0.00 | 0.00 | 0.00 | 63 | 986.1 |
| 20260505123802 | 63 | 265 | 3.0 | 7.0 | 0.00 | 0.00 | 0.00 | 65 | 986.1 |
| 20260505123300 | 63 | 205 | 3.0 | 6.0 | 0.00 | 0.00 | 0.00 | 64 | 986.1 |
| 20260505123047 | 63 | 223 | 3.0 | 7.0 | 0.00 | 0.00 | 0.00 | 65 | 986.1 |
| 20260505122305 | 62 | 279 | 3.0 | 7.0 | 0.00 | 0.00 | 0.00 | 66 | 986.0 |
| 20260505121801 | 62 | 208 | 2.0 | 6.0 | 0.00 | 0.00 | 0.00 | 66 | 986.0 |
| 20260505121302 | 62 | 356 | 2.0 | 6.0 | 0.00 | 0.00 | 0.00 | 66 | 985.9 |
| 20260505120801 | 62 | 318 | 2.0 | 8.0 | 0.00 | 0.00 | 0.00 | 67 | 985.9 |
| 20260505120301 | 61 | 242 | 3.0 | 8.0 | 0.00 | 0.00 | 0.00 | 68 | 985.8 |
| 20260505115801 | 61 | 295 | 2.0 | 6.0 | 0.00 | 0.00 | 0.00 | 68 | 985.8 |
| 20260505115304 | 61 | 271 | 2.0 | 5.0 | 0.00 | 0.00 | 0.00 | 68 | 985.6 |
| 20260505114802 | 61 | 204 | 2.0 | 5.0 | 0.00 | 0.00 | 0.00 | 68 | 985.6 |
| 20260505114533 | 60 | 208 | 2.0 | 4.0 | 0.00 | 0.00 | 0.00 | 69 | 985.6 |
| 20260505114038 | 60 | 196 | 2.0 | 4.0 | 0.00 | 0.00 | 0.00 | 69 | 985.6 |
| 20260505113301 | 60 | 205 | 2.0 | 4.0 | 0.00 | 0.00 | 0.00 | 69 | 985.5 |
| 20260505112816 | 60 | 245 | 2.0 | 4.0 | 0.00 | 0.00 | 0.00 | 70 | 985.4 |
| 20260505112810 | 60 | 257 | 2.0 | 4.0 | 0.00 | 0.00 | 0.00 | 70 | 985.5 |
| 20260505112039 | 59 | 198 | 2.0 | 4.0 | 0.00 | 0.00 | 0.00 | 70 | 985.4 |
| 20260505111302 | 59 | 246 | 2.0 | 4.0 | 0.00 | 0.00 | 0.00 | 69 | 985.3 |
| 20260505110802 | 59 | 300 | 2.0 | 4.0 | 0.00 | 0.00 | 0.00 | 70 | 985.3 |
| 20260505110303 | 59 | 288 | 2.0 | 3.0 | 0.00 | 0.00 | 0.00 | 71 | 985.2 |
| 20260505101802 | 59 | 202 | 2.0 | 5.0 | 0.00 | 0.00 | 0.00 | 71 | 984.9 |
| 20260505101302 | 59 | 285 | 2.0 | 5.0 | 0.00 | 0.00 | 0.00 | 70 | 984.8 |
| 20260505100816 | 59 | 222 | 2.0 | 5.0 | 0.00 | 0.00 | 0.00 | 70 | 984.8 |
| 20260505100809 | 59 | 202 | 2.0 | 5.0 | 0.00 | 0.00 | 0.00 | 70 | 984.8 |
| 20260505100043 | 59 | 222 | 2.0 | 5.0 | 0.00 | 0.00 | 0.00 | 70 | 984.7 |
| 20260505095537 | 59 | 295 | 2.0 | 4.0 | 0.00 | 0.00 | 0.00 | 70 | 984.7 |
| 20260505094802 | 60 | 101 | 2.0 | 6.0 | 0.00 | 0.00 | 0.00 | 69 | 984.7 |
| 20260505094301 | 60 | 228 | 2.0 | 6.0 | 0.00 | 0.00 | 0.00 | 70 | 984.7 |
| 20260505093800 | 60 | 238 | 2.0 | 5.0 | 0.00 | 0.00 | 0.00 | 69 | 984.7 |
| 20260505093303 | 60 | 178 | 2.0 | 8.0 | 0.00 | 0.00 | 0.00 | 69 | 984.7 |
| 20260505092754 | 60 | 204 | 3.0 | 8.0 | 0.00 | 0.00 | 0.00 | 68 | 984.7 |
| 20260505092255 | 60 | 250 | 3.0 | 7.0 | 0.00 | 0.00 | 0.00 | 68 | 984.6 |
| 20260505092036 | 60 | 285 | 2.0 | 5.0 | 0.00 | 0.00 | 0.00 | 70 | 984.6 |
| 20260505091256 | 59 | 85 | 2.0 | 6.0 | 0.00 | 0.00 | 0.00 | 70 | 984.6 |
| 20260505091016 | 59 | 238 | 2.0 | 6.0 | 0.00 | 0.00 | 0.00 | 71 | 984.6 |
| 20260505090240 | 59 | 343 | 1.0 | 3.0 | 0.00 | 0.00 | 0.00 | 71 | 984.6 |
| 20260505085740 | 59 | 303 | 2.0 | 5.0 | 0.00 | 0.00 | 0.00 | 71 | 984.5 |
| 20260505085240 | 60 | 318 | 2.0 | 5.0 | 0.00 | 0.00 | 0.00 | 70 | 984.6 |
| 20260505084740 | 59 | 237 | 2.0 | 4.0 | 0.00 | 0.00 | 0.00 | 71 | 984.6 |
| 20260505084230 | 59 | 314 | 1.0 | 4.0 | 0.00 | 0.00 | 0.00 | 70 | 984.6 |
| 20260505084001 | 60 | 246 | 1.0 | 2.0 | 0.00 | 0.00 | 0.00 | 71 | 984.5 |
| 20260505083230 | 60 | 227 | 1.0 | 4.0 | 0.00 | 0.00 | 0.00 | 70 | 984.4 |
| 20260505082730 | 60 | 305 | 1.0 | 4.0 | 0.00 | 0.00 | 0.00 | 70 | 984.4 |
| 20260505082503 | 60 | 212 | 1.0 | 3.0 | 0.00 | 0.00 | 0.00 | 71 | 984.4 |
| 20260505081730 | 60 | 274 | 1.0 | 3.0 | 0.00 | 0.00 | 0.00 | 71 | 984.4 |
| 20260505081229 | 59 | 269 | 1.0 | 3.0 | 0.00 | 0.00 | 0.00 | 71 | 984.4 |
| 20260505080729 | 59 | 194 | 1.0 | 2.0 | 0.00 | 0.00 | 0.00 | 71 | 984.4 |
| 20260505080230 | 59 | 286 | 1.0 | 2.0 | 0.00 | 0.00 | 0.00 | 72 | 984.4 |
| 20260505075729 | 60 | 162 | 2.0 | 3.0 | 0.00 | 0.00 | 0.00 | 71 | 984.4 |
| 20260505075229 | 60 | 140 | 2.0 | 3.0 | 0.00 | 0.00 | 0.00 | 70 | 984.4 |
| 20260505074730 | 61 | 218 | 2.0 | 3.0 | 0.00 | 0.00 | 0.00 | 69 | 984.4 |
| 20260505074230 | 61 | 204 | 2.0 | 4.0 | 0.00 | 0.00 | 0.00 | 68 | 984.3 |
| 20260505073731 | 61 | 205 | 2.0 | 4.0 | 0.00 | 0.00 | 0.00 | 68 | 984.3 |
| 20260505073230 | 61 | 154 | 2.0 | 4.0 | 0.00 | 0.00 | 0.00 | 67 | 984.3 |
| 20260505072730 | 62 | 190 | 2.0 | 3.0 | 0.00 | 0.00 | 0.00 | 66 | 984.4 |
| 20260505072230 | 62 | 183 | 2.0 | 4.0 | 0.00 | 0.00 | 0.00 | 66 | 984.4 |
| 20260505071729 | 62 | 281 | 2.0 | 4.0 | 0.00 | 0.00 | 0.00 | 66 | 984.4 |
| 20260505071230 | 62 | 240 | 1.0 | 3.0 | 0.00 | 0.00 | 0.00 | 66 | 984.6 |
| 20260505070730 | 62 | 298 | 1.0 | 4.0 | 0.00 | 0.00 | 0.00 | 66 | 984.4 |
| 20260505070522 | 62 | 209 | 1.0 | 3.0 | 0.00 | 0.00 | 0.00 | 66 | 984.6 |
| 20260505070239 | 62 | 111 | 1.0 | 4.0 | 0.00 | 0.00 | 0.00 | 66 | 984.5 |
| 20260505065230 | 62 | 227 | 2.0 | 5.0 | 0.00 | 0.00 | 0.00 | 65 | 984.7 |
| 20260505065004 | 62 | 257 | 2.0 | 6.0 | 0.00 | 0.00 | 0.00 | 66 | 984.6 |
| 20260505064600 | 62 | 240 | 2.0 | 6.0 | 0.00 | 0.00 | 0.00 | 65 | 984.6 |
| 20260505064555 | 62 | 277 | 3.0 | 6.0 | 0.00 | 0.00 | 0.00 | 65 | 984.5 |
| 20260505063230 | 61 | 221 | 2.0 | 5.0 | 0.00 | 0.00 | 0.00 | 65 | 984.6 |
| 20260505062730 | 61 | 307 | 2.0 | 4.0 | 0.00 | 0.00 | 0.00 | 66 | 984.6 |
| 20260505062230 | 61 | 254 | 2.0 | 6.0 | 0.00 | 0.00 | 0.00 | 65 | 984.6 |
| 20260505061729 | 61 | 241 | 2.0 | 6.0 | 0.00 | 0.00 | 0.00 | 66 | 984.6 |
| 20260505061228 | 60 | 5 | 1.0 | 2.0 | 0.00 | 0.00 | 0.00 | 67 | 984.6 |
| 20260505060728 | 60 | 236 | 1.0 | 2.0 | 0.00 | 0.00 | 0.00 | 67 | 984.6 |
| 20260505060229 | 60 | 211 | 1.0 | 2.0 | 0.00 | 0.00 | 0.00 | 66 | 984.6 |
| 20260505055728 | 60 | 169 | 0.0 | 2.0 | 0.00 | 0.00 | 0.00 | 67 | 984.7 |
| 20260505055233 | 60 | 220 | 0.0 | 1.0 | 0.00 | 0.00 | 0.00 | 66 | 984.7 |
| 20260505054740 | 60 | 262 | 1.0 | 6.0 | 0.00 | 0.00 | 0.00 | 64 | 984.6 |
| 20260505054734 | 60 | 0 | 1.0 | 3.0 | 0.00 | 0.00 | 0.00 | 66 | 984.6 |
| 20260505054726 | 60 | 353 | 1.0 | 3.0 | 0.00 | 0.00 | 0.00 | 65 | 984.6 |
| 20260505053514 | 60 | 231 | 2.0 | 6.0 | 0.00 | 0.00 | 0.00 | 64 | 984.6 |
| 20260505052729 | 60 | 48 | 2.0 | 4.0 | 0.00 | 0.00 | 0.00 | 64 | 984.7 |
| 20260505052228 | 60 | 215 | 2.0 | 4.0 | 0.00 | 0.00 | 0.00 | 64 | 984.6 |
| 20260505052014 | 60 | 344 | 1.0 | 4.0 | 0.00 | 0.00 | 0.00 | 63 | 984.6 |
| 20260505051514 | 60 | 0 | 1.0 | 5.0 | 0.00 | 0.00 | 0.00 | 63 | 984.7 |
| 20260505051013 | 60 | 318 | 2.0 | 5.0 | 0.00 | 0.00 | 0.00 | 63 | 984.6 |
| 20260505050512 | 60 | 139 | 2.0 | 5.0 | 0.00 | 0.00 | 0.00 | 61 | 984.6 |
| 20260505041729 | 61 | 266 | 2.0 | 5.0 | 0.00 | 0.00 | 0.00 | 57 | 984.6 |
| 20260505041230 | 61 | 193 | 1.0 | 4.0 | 0.00 | 0.00 | 0.00 | 58 | 984.4 |
| 20260505040730 | 61 | 322 | 1.0 | 4.0 | 0.00 | 0.00 | 0.00 | 57 | 984.4 |
| 20260505040518 | 61 | 279 | 1.0 | 4.0 | 0.00 | 0.00 | 0.00 | 56 | 984.4 |
| 20260505035731 | 61 | 326 | 1.0 | 4.0 | 0.00 | 0.00 | 0.00 | 56 | 984.5 |
| 20260505035514 | 62 | 155 | 1.0 | 6.0 | 0.00 | 0.00 | 0.00 | 56 | 984.4 |
| 20260505034730 | 62 | 144 | 1.0 | 6.0 | 0.00 | 0.00 | 0.00 | 56 | 984.3 |
| 20260505034516 | 62 | 166 | 2.0 | 6.0 | 0.00 | 0.00 | 0.00 | 55 | 984.2 |
| 20260505034016 | 62 | 207 | 2.0 | 6.0 | 0.00 | 0.00 | 0.00 | 54 | 984.1 |
| 20260505033229 | 63 | 141 | 2.0 | 6.0 | 0.00 | 0.00 | 0.00 | 55 | 984.1 |
| 20260505032729 | 63 | 168 | 2.0 | 8.0 | 0.00 | 0.00 | 0.00 | 53 | 984.2 |
| 20260505032229 | 63 | 220 | 2.0 | 8.0 | 0.00 | 0.00 | 0.00 | 53 | 984.3 |
| 20260505031729 | 63 | 255 | 2.0 | 5.0 | 0.00 | 0.00 | 0.00 | 53 | 984.2 |
| 20260505031231 | 63 | 185 | 2.0 | 5.0 | 0.00 | 0.00 | 0.00 | 53 | 984.2 |
| 20260505030730 | 63 | 202 | 2.0 | 5.0 | 0.00 | 0.00 | 0.00 | 52 | 984.3 |
| 20260505030230 | 63 | 259 | 2.0 | 5.0 | 0.00 | 0.00 | 0.00 | 52 | 984.3 |
| 20260505025730 | 63 | 203 | 3.0 | 7.0 | 0.00 | 0.00 | 0.00 | 52 | 984.3 |
| 20260505025230 | 63 | 184 | 2.0 | 7.0 | 0.00 | 0.00 | 0.00 | 52 | 984.3 |
| 20260505025013 | 63 | 158 | 2.0 | 6.0 | 0.00 | 0.00 | 0.00 | 53 | 984.4 |
| 20260505024520 | 63 | 251 | 2.0 | 6.0 | 0.00 | 0.00 | 0.00 | 52 | 984.4 |
| 20260505023729 | 63 | 212 | 2.0 | 5.0 | 0.00 | 0.00 | 0.00 | 52 | 984.4 |
| 20260505023516 | 63 | 286 | 2.0 | 5.0 | 0.00 | 0.00 | 0.00 | 52 | 984.4 |
| 20260505022729 | 63 | 217 | 2.0 | 6.0 | 0.00 | 0.00 | 0.00 | 52 | 984.4 |
| 20260505022230 | 62 | 0 | 2.0 | 6.0 | 0.00 | 0.00 | 0.00 | 52 | 984.3 |
| 20260505021731 | 62 | 320 | 2.0 | 6.0 | 0.00 | 0.00 | 0.00 | 52 | 984.5 |
| 20260505021230 | 62 | 181 | 1.0 | 5.0 | 0.00 | 0.00 | 0.00 | 53 | 984.6 |
| 20260505020731 | 62 | 306 | 1.0 | 4.0 | 0.00 | 0.00 | 0.00 | 54 | 984.7 |
| 20260505020231 | 61 | 220 | 1.0 | 6.0 | 0.00 | 0.00 | 0.00 | 55 | 984.7 |
| 20260505020013 | 62 | 250 | 1.0 | 6.0 | 0.00 | 0.00 | 0.00 | 54 | 984.8 |
| 20260505015232 | 62 | 0 | 1.0 | 4.0 | 0.00 | 0.00 | 0.00 | 54 | 984.7 |
| 20260505015017 | 62 | 107 | 1.0 | 3.0 | 0.00 | 0.00 | 0.00 | 52 | 984.7 |
| 20260505014230 | 63 | 4 | 1.0 | 4.0 | 0.00 | 0.00 | 0.00 | 52 | 984.7 |
| 20260505013731 | 63 | 209 | 2.0 | 4.0 | 0.00 | 0.00 | 0.00 | 50 | 984.7 |
| 20260505013232 | 64 | 20 | 1.0 | 3.0 | 0.00 | 0.00 | 0.00 | 50 | 984.6 |
| 20260505012731 | 64 | 48 | 2.0 | 5.0 | 0.00 | 0.00 | 0.00 | 49 | 984.4 |
| 20260505012232 | 64 | 148 | 2.0 | 5.0 | 0.00 | 0.00 | 0.00 | 48 | 984.4 |
| 20260505011732 | 64 | 148 | 2.0 | 5.0 | 0.00 | 0.00 | 0.00 | 49 | 984.3 |
| 20260505011230 | 64 | 139 | 2.0 | 5.0 | 0.00 | 0.00 | 0.00 | 47 | 984.3 |
| 20260505010731 | 64 | 306 | 2.0 | 5.0 | 0.00 | 0.00 | 0.00 | 47 | 984.2 |
| 20260505010519 | 64 | 215 | 2.0 | 6.0 | 0.00 | 0.00 | 0.00 | 47 | 984.2 |
| 20260505010056 | 65 | 159 | 2.0 | 7.0 | 0.00 | 0.00 | 0.00 | 46 | 984.1 |
| 20260505005754 | 64 | 278 | 2.0 | 7.0 | 0.00 | 0.00 | 0.00 | 46 | 984.2 |
| 20260505004728 | 64 | 210 | 2.0 | 7.0 | 0.00 | 0.00 | 0.00 | 47 | 984.1 |
| 20260505004227 | 65 | 147 | 1.0 | 4.0 | 0.00 | 0.00 | 0.00 | 46 | 984.1 |
| 20260505003724 | 65 | 205 | 2.0 | 5.0 | 0.00 | 0.00 | 0.00 | 46 | 984.1 |
| 20260505003224 | 65 | 214 | 2.0 | 5.0 | 0.00 | 0.00 | 0.00 | 46 | 984.0 |
| 20260505002723 | 65 | 160 | 2.0 | 6.0 | 0.00 | 0.00 | 0.00 | 45 | 984.0 |
| 20260505002224 | 65 | 310 | 2.0 | 6.0 | 0.00 | 0.00 | 0.00 | 45 | 983.9 |
| 20260505001724 | 65 | 208 | 3.0 | 6.0 | 0.00 | 0.00 | 0.00 | 45 | 983.9 |
| 20260505001224 | 66 | 226 | 3.0 | 7.0 | 0.00 | 0.00 | 0.00 | 45 | 983.9 |
| 20260505000724 | 66 | 267 | 3.0 | 7.0 | 0.00 | 0.00 | 0.00 | 45 | 983.9 |
| 20260505000226 | 66 | 190 | 2.0 | 6.0 | 0.00 | 0.00 | 0.00 | 45 | 983.9 |
| 20260504235725 | 66 | 0 | 2.0 | 6.0 | 0.00 | 0.00 | 0.00 | 45 | 983.9 |
| 20260504235222 | 66 | 200 | 3.0 | 6.0 | 0.00 | 0.00 | 0.00 | 44 | 983.8 |
| 20260504234722 | 66 | 162 | 3.0 | 7.0 | 0.00 | 0.00 | 0.00 | 44 | 983.8 |
| 20260504234511 | 66 | 134 | 3.0 | 7.0 | 0.00 | 0.00 | 0.00 | 44 | 983.8 |
| 20260504234010 | 67 | 193 | 2.0 | 7.0 | 0.00 | 0.00 | 0.00 | 44 | 983.7 |
| 20260504233221 | 67 | 280 | 3.0 | 11.0 | 0.00 | 0.00 | 0.00 | 44 | 983.7 |
| 20260504233010 | 67 | 218 | 4.0 | 11.0 | 0.00 | 0.00 | 0.00 | 44 | 983.6 |
| 20260504232222 | 67 | 180 | 4.0 | 11.0 | 0.00 | 0.00 | 0.00 | 44 | 983.7 |
| 20260504231722 | 67 | 222 | 4.0 | 11.0 | 0.00 | 0.00 | 0.00 | 43 | 983.7 |
| 20260504231223 | 67 | 164 | 4.0 | 10.0 | 0.00 | 0.00 | 0.00 | 43 | 983.7 |
| 20260504231012 | 68 | 188 | 4.0 | 13.0 | 0.00 | 0.00 | 0.00 | 44 | 983.7 |
| 20260504230222 | 68 | 318 | 4.0 | 13.0 | 0.00 | 0.06 | 0.00 | 42 | 983.7 |
| 20260504225719 | 68 | 222 | 4.0 | 13.0 | 0.00 | 0.06 | 0.00 | 42 | 983.7 |
| 20260504225219 | 68 | 263 | 4.0 | 13.0 | 0.00 | 0.06 | 0.00 | 42 | 983.7 |
| 20260504224720 | 68 | 183 | 4.0 | 13.0 | 0.00 | 0.06 | 0.00 | 42 | 983.6 |
| 20260504224220 | 68 | 197 | 4.0 | 9.0 | 0.00 | 0.06 | 0.00 | 43 | 983.7 |
| 20260504223719 | 69 | 182 | 5.0 | 9.0 | 0.00 | 0.06 | 0.00 | 40 | 983.7 |
| 20260504223220 | 69 | 307 | 5.0 | 14.0 | 0.00 | 0.06 | 0.00 | 40 | 983.7 |
| 20260504223009 | 69 | 289 | 5.0 | 14.0 | 0.00 | 0.06 | 0.00 | 42 | 983.7 |
| 20260504222219 | 69 | 159 | 5.0 | 12.0 | 0.00 | 0.06 | 0.00 | 41 | 983.6 |
| 20260504221720 | 69 | 220 | 5.0 | 12.0 | 0.00 | 0.06 | 0.00 | 41 | 983.7 |
| 20260504221220 | 69 | 149 | 5.0 | 12.0 | 0.00 | 0.06 | 0.00 | 40 | 983.8 |
| 20260504220720 | 69 | 202 | 5.0 | 12.0 | 0.00 | 0.07 | 0.00 | 39 | 983.8 |
| 20260504220220 | 69 | 173 | 4.0 | 12.0 | 0.00 | 0.07 | 0.00 | 41 | 983.8 |
| 20260504220009 | 69 | 294 | 5.0 | 12.0 | 0.00 | 0.07 | 0.00 | 39 | 983.8 |
| 20260504215218 | 70 | 208 | 4.0 | 9.0 | 0.00 | 0.07 | 0.00 | 39 | 983.9 |
| 20260504215007 | 69 | 241 | 5.0 | 15.0 | 0.00 | 0.07 | 0.00 | 39 | 983.8 |
| 20260504214217 | 69 | 220 | 6.0 | 15.0 | 0.00 | 0.07 | 0.00 | 41 | 983.8 |
| 20260504214007 | 70 | 175 | 4.0 | 9.0 | 0.00 | 0.07 | 0.00 | 39 | 983.8 |
| 20260504213218 | 70 | 201 | 4.0 | 9.0 | 0.00 | 0.07 | 0.00 | 41 | 983.8 |
| 20260504212719 | 69 | 230 | 4.0 | 9.0 | 0.00 | 0.07 | 0.00 | 41 | 983.8 |
| 20260504212218 | 69 | 200 | 4.0 | 9.0 | 0.00 | 0.07 | 0.00 | 40 | 983.8 |
| 20260504211718 | 69 | 260 | 4.0 | 11.0 | 0.00 | 0.07 | 0.00 | 40 | 983.8 |
| 20260504211218 | 69 | 169 | 4.0 | 11.0 | 0.00 | 0.07 | 0.00 | 41 | 983.9 |
| 20260504210719 | 70 | 182 | 4.0 | 11.0 | 0.00 | 0.07 | 0.00 | 42 | 983.8 |
| 20260504210216 | 69 | 226 | 4.0 | 11.0 | 0.00 | 0.07 | 0.00 | 43 | 983.8 |
| 20260504205712 | 70 | 176 | 4.0 | 9.0 | 0.00 | 0.07 | 0.00 | 40 | 983.8 |
| 20260504205213 | 69 | 229 | 4.0 | 9.0 | 0.00 | 0.07 | 0.00 | 40 | 983.8 |
| 20260504204712 | 70 | 213 | 4.0 | 10.0 | 0.00 | 0.07 | 0.00 | 39 | 983.8 |
| 20260504204212 | 70 | 252 | 5.0 | 10.0 | 0.00 | 0.07 | 0.00 | 41 | 983.8 |
| 20260504203713 | 70 | 292 | 3.0 | 7.0 | 0.00 | 0.07 | 0.00 | 38 | 983.8 |
| 20260504203213 | 70 | 194 | 3.0 | 8.0 | 0.00 | 0.07 | 0.00 | 40 | 983.9 |
| 20260504202713 | 70 | 231 | 4.0 | 9.0 | 0.00 | 0.07 | 0.00 | 40 | 983.9 |
| 20260504202213 | 69 | 265 | 4.0 | 9.0 | 0.00 | 0.07 | 0.00 | 40 | 984.0 |
| 20260504201713 | 69 | 184 | 5.0 | 14.0 | 0.00 | 0.07 | 0.00 | 43 | 984.0 |
| 20260504201213 | 69 | 227 | 6.0 | 14.0 | 0.00 | 0.07 | 0.00 | 42 | 984.1 |
| 20260504201007 | 69 | 309 | 4.0 | 12.0 | 0.00 | 0.07 | 0.00 | 42 | 984.1 |
| 20260504200211 | 70 | 146 | 4.0 | 12.0 | 0.00 | 0.07 | 0.00 | 39 | 984.2 |
| 20260504195707 | 70 | 58 | 4.0 | 12.0 | 0.00 | 0.07 | 0.00 | 38 | 984.3 |
| 20260504195207 | 70 | 217 | 4.0 | 9.0 | 0.00 | 0.07 | 0.00 | 41 | 984.3 |
| 20260504194957 | 70 | 161 | 4.0 | 11.0 | 0.00 | 0.07 | 0.00 | 42 | 984.3 |
| 20260504194208 | 70 | 182 | 5.0 | 11.0 | 0.00 | 0.07 | 0.00 | 42 | 984.4 |
| 20260504193958 | 70 | 299 | 5.0 | 11.0 | 0.00 | 0.07 | 0.00 | 39 | 984.3 |
| 20260504193208 | 70 | 175 | 4.0 | 9.0 | 0.00 | 0.07 | 0.00 | 38 | 984.5 |
| 20260504192711 | 70 | 199 | 3.0 | 8.0 | 0.00 | 0.07 | 0.00 | 40 | 984.6 |
| 20260504192209 | 70 | 10 | 4.0 | 14.0 | 0.00 | 0.07 | 0.00 | 40 | 984.6 |
| 20260504191708 | 69 | 228 | 5.0 | 14.0 | 0.00 | 0.07 | 0.00 | 40 | 984.7 |
| 20260504191211 | 69 | 216 | 5.0 | 12.0 | 0.00 | 0.07 | 0.00 | 40 | 984.7 |
| 20260504190954 | 69 | 114 | 5.0 | 12.0 | 0.00 | 0.07 | 0.00 | 39 | 984.8 |
| 20260504190205 | 70 | 205 | 4.0 | 11.0 | 0.00 | 0.07 | 0.00 | 37 | 984.8 |
| 20260504185705 | 69 | 197 | 4.0 | 13.0 | 0.00 | 0.07 | 0.00 | 41 | 984.9 |
| 20260504185204 | 69 | 197 | 4.0 | 13.0 | 0.00 | 0.07 | 0.00 | 39 | 984.9 |
| 20260504184703 | 69 | 207 | 5.0 | 11.0 | 0.00 | 0.07 | 0.00 | 41 | 985.0 |
| 20260504184204 | 68 | 165 | 5.0 | 11.0 | 0.00 | 0.07 | 0.00 | 44 | 985.1 |
| 20260504183704 | 68 | 200 | 5.0 | 11.0 | 0.00 | 0.07 | 0.00 | 41 | 985.1 |
| 20260504183203 | 68 | 292 | 4.0 | 9.0 | 0.00 | 0.07 | 0.00 | 40 | 985.0 |
| 20260504182701 | 68 | 205 | 4.0 | 11.0 | 0.00 | 0.07 | 0.00 | 40 | 985.2 |
| 20260504182201 | 68 | 210 | 4.0 | 11.0 | 0.00 | 0.07 | 0.00 | 42 | 985.4 |
| 20260504181701 | 68 | 215 | 4.0 | 11.0 | 0.00 | 0.07 | 0.00 | 39 | 985.4 |
| 20260504181200 | 68 | 179 | 4.0 | 11.0 | 0.00 | 0.07 | 0.00 | 40 | 985.5 |
| 20260504180700 | 68 | 300 | 5.0 | 10.0 | 0.00 | 0.07 | 0.00 | 40 | 985.5 |
| 20260504180200 | 68 | 260 | 5.0 | 10.0 | 0.00 | 0.07 | 0.00 | 44 | 985.7 |
| 20260504175701 | 68 | 160 | 4.0 | 10.0 | 0.00 | 0.07 | 0.00 | 42 | 985.6 |
| 20260504175201 | 67 | 293 | 4.0 | 11.0 | 0.00 | 0.07 | 0.00 | 42 | 985.8 |
| 20260504174701 | 67 | 340 | 4.0 | 11.0 | 0.00 | 0.07 | 0.00 | 40 | 985.8 |
| 20260504174201 | 68 | 252 | 4.0 | 11.0 | 0.00 | 0.07 | 0.00 | 43 | 985.9 |
| 20260504173701 | 68 | 274 | 4.0 | 9.0 | 0.00 | 0.07 | 0.00 | 40 | 985.9 |
| 20260504173202 | 67 | 221 | 4.0 | 8.0 | 0.00 | 0.07 | 0.00 | 42 | 986.0 |
| 20260504172701 | 67 | 337 | 4.0 | 11.0 | 0.00 | 0.07 | 0.00 | 42 | 986.1 |
| 20260504172201 | 66 | 285 | 5.0 | 11.0 | 0.00 | 0.07 | 0.00 | 43 | 986.1 |
| 20260504171701 | 66 | 239 | 4.0 | 9.0 | 0.00 | 0.07 | 0.00 | 41 | 986.2 |
| 20260504171202 | 67 | 193 | 4.0 | 10.0 | 0.00 | 0.07 | 0.00 | 40 | 986.2 |
| 20260504170701 | 66 | 288 | 4.0 | 10.0 | 0.00 | 0.07 | 0.00 | 43 | 986.4 |
| 20260504170202 | 67 | 312 | 4.0 | 10.0 | 0.00 | 0.07 | 0.00 | 42 | 986.5 |
| 20260504160202 | 64 | 204 | 4.0 | 11.0 | 0.00 | 0.07 | 0.00 | 44 | 987.0 |
| 20260504150702 | 63 | 265 | 3.0 | 9.0 | 0.00 | 0.07 | 0.00 | 43 | 987.7 |
| 20260504150202 | 62 | 211 | 4.0 | 8.0 | 0.00 | 0.07 | 0.00 | 44 | 987.7 |
| 20260504141201 | 61 | 351 | 2.0 | 8.0 | 0.00 | 0.07 | 0.00 | 48 | 987.8 |
| 20260504140701 | 60 | 272 | 2.0 | 6.0 | 0.00 | 0.07 | 0.00 | 49 | 987.8 |
| 20260504140201 | 60 | 232 | 2.0 | 8.0 | 0.00 | 0.07 | 0.00 | 48 | 987.8 |